TimeCST,TemperatureF,Dew PointF,Humidity,Sea Level PressureIn,VisibilityMPH,Wind Direction,Wind SpeedMPH,Gust SpeedMPH,PrecipitationIn,Events,Conditions,WindDirDegrees,DateUTC
12:53 AM,32.0,27.0,82,29.84,10.0,SSE,9.2,-,N/A,,Clear,150,2013-02-24 06:53:00
1:53 AM,32.0,27.0,82,29.83,10.0,SE,5.8,-,N/A,,Clear,130,2013-02-24 07:53:00
2:53 AM,30.9,27.0,85,29.82,10.0,SSE,11.5,-,N/A,,Clear,160,2013-02-24 08:53:00
3:53 AM,33.1,27.0,78,29.80,10.0,SSE,13.8,-,N/A,,Clear,160,2013-02-24 09:53:00
4:53 AM,34.0,28.0,79,29.78,10.0,SSE,21.9,-,N/A,,Clear,160,2013-02-24 10:53:00
5:53 AM,34.0,28.0,79,29.78,10.0,SSE,21.9,-,N/A,,Clear,160,2013-02-24 11:53:00
6:53 AM,34.0,28.0,79,29.79,10.0,SSE,23.0,-,N/A,,Clear,160,2013-02-24 12:53:00
7:53 AM,34.0,28.9,82,29.80,10.0,South,19.6,-,N/A,,Clear,170,2013-02-24 13:53:00
8:53 AM,37.9,30.0,73,29.81,10.0,SSE,24.2,29.9,N/A,,Clear,160,2013-02-24 14:53:00
9:53 AM,43.0,33.1,68,29.79,10.0,SSE,23.0,34.5,N/A,,Clear,160,2013-02-24 15:53:00
10:53 AM,48.0,35.1,61,29.78,10.0,South,24.2,-,N/A,,Clear,170,2013-02-24 16:53:00
11:53 AM,52.0,37.0,57,29.76,10.0,South,25.3,32.2,N/A,,Clear,180,2013-02-24 17:53:00
12:53 PM,55.0,37.9,53,29.73,10.0,South,23.0,28.8,N/A,,Clear,170,2013-02-24 18:53:00
1:53 PM,57.0,39.0,51,29.70,10.0,South,24.2,29.9,N/A,,Clear,180,2013-02-24 19:53:00
2:53 PM,60.1,41.0,49,29.68,10.0,South,19.6,-,N/A,,Clear,170,2013-02-24 20:53:00
3:53 PM,61.0,41.0,48,29.63,10.0,SSE,25.3,32.2,N/A,,Clear,150,2013-02-24 21:53:00
4:53 PM,61.0,41.0,48,29.64,10.0,SSE,15.0,25.3,N/A,,Clear,150,2013-02-24 22:53:00
5:53 PM,57.9,42.1,56,29.66,10.0,SE,10.4,-,N/A,,Clear,140,2013-02-24 23:53:00
7:53 PM,46.9,39.0,74,29.70,10.0,NNW,28.8,34.5,N/A,,Overcast,330,2013-02-25 01:53:00
8:33 PM,37.4,33.8,87,29.78,7.0,NW,25.3,39.1,0.00,Rain-Thunderstorm,Light Thunderstorms and Rain,320,2013-02-25 02:33:00
8:53 PM,37.0,34.0,89,29.81,3.0,NNW,24.2,29.9,0.07,Rain-Thunderstorm,Thunderstorms and Rain,340,2013-02-25 02:53:00
9:03 PM,35.6,33.8,93,29.78,4.0,North,28.8,36.8,0.01,Rain-Thunderstorm,Rain,350,2013-02-25 03:03:00
9:15 PM,35.6,33.8,93,29.79,4.0,North,27.6,34.5,0.01,Rain,Light Rain,350,2013-02-25 03:15:00
9:28 PM,35.6,33.8,93,29.78,4.0,North,25.3,33.4,0.01,Rain,Light Freezing Rain,360,2013-02-25 03:28:00
9:53 PM,35.1,33.1,92,29.78,4.0,North,26.5,36.8,0.01,Rain,Light Rain,360,2013-02-25 03:53:00
9:56 PM,35.6,33.8,93,29.77,4.0,North,25.3,33.4,0.00,Rain,Light Freezing Rain,360,2013-02-25 03:56:00
10:15 PM,35.6,33.8,93,29.77,4.0,North,19.6,32.2,0.00,,Overcast,350,2013-02-25 04:15:00
10:53 PM,36.0,33.1,89,29.78,5.0,North,19.6,-,0.00,Rain-Thunderstorm,Light Rain,10,2013-02-25 04:53:00
11:13 PM,35.6,33.8,93,29.79,4.0,North,13.8,-,0.03,Rain,Rain,360,2013-02-25 05:13:00
11:24 PM,35.6,33.8,93,29.75,4.0,NNE,20.7,-,0.05,Rain,Light Rain,20,2013-02-25 05:24:00
11:41 PM,35.6,33.8,93,29.75,2.5,North,20.7,-,0.10,Rain,Rain,360,2013-02-25 05:41:00
11:53 PM,36.0,34.0,93,29.77,3.0,North,18.4,-,0.13,Rain,Rain,360,2013-02-25 05:53:00